Regional Weather Roundup
Issued by NWS

Current Version | Previous Version | Text Only | Print | Product List | Glossary On
Versions: 1 2 3 4 5 6 7 8 9 10 11 12 13 14 15 16 17 18 19 20 21 22 23 24 25 26 27 28
000
ASUS46 KSEW 250210
RWRWA

WASHINGTON REGIONAL WEATHER ROUNDUP
NATIONAL WEATHER SERVICE SEATTLE WA
600 PM PST TUE JAN 24 2017

NOTE:"FAIR" INDICATES FEW OR NO CLOUDS BELOW 12,000 FEET WITH NO
SIGNIFICANT WEATHER AND/OR OBSTRUCTIONS TO VISIBILITY.

WAZ507-509-555>559-250300-
SEATTLE, TACOMA, EVERETT, AND VICINITY

CITY           SKY/WX    TMP DP  RH WIND       PRES   REMARKS
EVERETT        CLOUDY    40  37  89 CALM      30.16S
BOEING FIELD   CLOUDY    41  38  89 CALM      30.18R
RENTON         CLOUDY    39  36  89 CALM      30.17S
SEATAC AIRPORT MOCLDY    37  35  92 CALM      30.16S
JBLM-MCCHORD   CLOUDY    39  38  99 CALM      30.16S
PUYALLUP         N/A     36  36 100 CALM      30.16S
BREMERTON      CLOUDY    37  37 100 CALM      30.19R VSB 3/4
JBLM-FT LEWIS  CLOUDY    39  39 100 VRB3      30.16S
TACOMA NARROWS MOCLDY    38  37  97 CALM      30.17R FOG
$$

WAZ001-503-506-510-514-515-250300-
NORTH INTERIOR

CITY           SKY/WX    TMP DP  RH WIND       PRES   REMARKS
BELLINGHAM     CLOUDY    39  36  89 CALM      30.17R
FRIDAY HARBOR  PTCLDY    37  35  92 CALM      30.18S
EASTSOUND      CLOUDY    41  37  87 S3        30.16S
PORT ANGELES   CLOUDY    41  39  93 E5        30.16S
EDIZ HOOK      CLOUDY    42  38  87 SE5       30.17S
PORT TOWNSEND  CLOUDY    37  37 100 CALM      30.18R
NAS WHIDBEY    CLOUDY    41  36  82 E5        30.21S
ARLINGTON      CLOUDY    37  30  75 CALM      30.19S
BURLINGTON     CLOUDY    37  36  93 CALM      30.18R
$$

WAZ020-022-039-040-504-511-512-250300-
SOUTHWEST INTERIOR

CITY           SKY/WX    TMP DP  RH WIND       PRES   REMARKS
SHELTON        CLOUDY    37  36  96 SW3       30.15S FOG
OLYMPIA        CLOUDY    39  38  96 CALM      30.17S
CHEHALIS       CLOUDY    41  37  87 S5        30.17S
KELSO          CLOUDY    37  35  92 SE6       30.19F
VANCOUVER      CLOUDY    37  34  89 W3        30.19S FOG
SCAPPOOSE, OR  CLOUDY    36  34  92 CALM      30.19S
PORTLAND, OR   CLOUDY    37  34  89 W6        30.20R
$$

WAZ021-516-517-250300-
WASHINGTON COAST

CITY           SKY/WX    TMP DP  RH WIND       PRES   REMARKS
FORKS          CLOUDY    41  39  93 CALM      30.15R
HOQUIAM        CLOUDY    41  40  96 E6        30.16R
ASTORIA, OR    CLOUDY    40  36  86 CALM      30.17R
$$

WAZ019-023-024-040-567>569-250300-
CASCADE MOUNTAINS AND COLUMBIA GORGE

CITY           SKY/WX    TMP DP  RH WIND       PRES   REMARKS
STAMPEDE PASS  CLOUDY    27  27 100 VRB3      30.03R FOG
TROUTDALE, OR  CLOUDY    39  35  86 CALM      30.19S
THE DALLES, OR PTCLDY    33  29  85 CALM      30.16R
$$

WAZ026-027-041>044-520-521-250300-
EAST SLOPES

CITY           SKY/WX    TMP DP  RH WIND       PRES   REMARKS
OMAK           CLOUDY    33  28  81 SE5       30.12R
WENATCHEE      CLOUDY    30  28  92 E6        30.12R
ELLENSBURG     FOG       21  18  88 CALM      30.09R VSB 1/4
YAKIMA         MOCLDY    26  23  88 CALM      30.15R
$$

WAZ028-034-035-250300-
COLUMBIA BASIN

CITY           SKY/WX    TMP DP  RH WIND       PRES   REMARKS
EPHRATA        CLOUDY    31  26  82 SE6       30.12S
MOSES LAKE     CLOUDY    31  27  85 CALM      30.14R
PASCO          CLOUDY    33  31  92 N3        30.19R
HERMISTON, OR  CLOUDY    32  31  96 S6        30.16R
$$

WAZ036>038-250300-
NORTHEAST WASHINGTON

CITY           SKY/WX    TMP DP  RH WIND       PRES   REMARKS
SPOKANE GEIGER FLURRIES  29  26  89 SW7       30.08R
SPOKANE FELTS  CLOUDY    33  29  85 SW6       30.10R
FAIRCHILD AFB  CLOUDY    28  28 100 W8        30.06S
COEURDALENE,ID MIX PCPN  31  29  92 SW7       30.08R
DEER PARK      CLOUDY    31  27  85 SW6       30.08R
$$

WAZ029>033-250300-
SOUTHEAST WASHINGTON

CITY           SKY/WX    TMP DP  RH WIND       PRES   REMARKS
PULLMAN        FLURRIES  30  26  85 CALM      30.09R
LEWISTON, ID   CLOUDY    34  27  75 CALM      30.12R
WALLA WALLA    CLOUDY    31  29  92 CALM      30.13R FOG
PENDLETON, OR  FOG       30  30 100 W3        30.11S VSB 3/4
$$




USA.gov is the U.S. government's official web portal to all federal, state and local government web resources and services.